Time,TemperatureF,DewpointF,PressureIn,WindDirection,WindDirectionDegrees,WindSpeedMPH,WindSpeedGustMPH,Humidity,HourlyPrecipIn,Conditions,Clouds,dailyrainin,SoftwareType,DateUTC
2013-05-16 00:03:00,47.1,-99.9,29.95,SE,128,4.0,12.0,1,0.00,,,0.00,WeatherCatV1.13B119,2013-05-16 07:03:00,
2013-05-16 00:08:00,47.1,-99.9,29.95,ESE,104,6.0,6.0,1,0.00,,,0.00,WeatherCatV1.13B119,2013-05-16 07:08:00,
2013-05-16 00:13:00,47.1,-99.9,29.95,WNW,283,7.0,17.0,1,0.00,,,0.00,WeatherCatV1.13B119,2013-05-16 07:13:00,
2013-05-16 00:18:00,47.0,-99.9,29.95,SSE,149,2.0,5.0,1,0.00,,,0.00,WeatherCatV1.13B119,2013-05-16 07:18:00,
2013-05-16 00:23:00,47.0,-99.9,29.95,East,92,4.0,14.0,1,0.00,,,0.00,WeatherCatV1.13B119,2013-05-16 07:23:00,
2013-05-16 00:28:00,47.0,-99.9,29.94,NE,47,5.0,8.0,1,0.00,,,0.00,WeatherCatV1.13B119,2013-05-16 07:28:00,
2013-05-16 00:33:00,47.0,-99.9,29.94,ESE,111,4.0,12.0,1,0.00,,,0.00,WeatherCatV1.13B119,2013-05-16 07:33:00,
2013-05-16 00:38:00,47.1,-99.9,29.94,ESE,123,6.0,9.0,1,0.00,,,0.00,WeatherCatV1.13B119,2013-05-16 07:38:00,
2013-05-16 00:43:00,47.2,-99.9,29.94,NE,42,3.0,10.0,1,0.00,,,0.00,WeatherCatV1.13B119,2013-05-16 07:43:00,
2013-05-16 00:48:00,47.2,-99.9,29.94,West,277,7.0,9.0,1,0.00,,,0.00,WeatherCatV1.13B119,2013-05-16 07:48:00,
2013-05-16 00:53:00,47.3,-99.9,29.94,SSE,152,1.0,6.0,1,0.00,,,0.00,WeatherCatV1.13B119,2013-05-16 07:53:00,
2013-05-16 00:58:00,47.3,-99.9,29.95,ESE,121,3.0,7.0,1,0.00,,,0.00,WeatherCatV1.13B119,2013-05-16 07:58:00,
2013-05-16 01:03:00,47.3,-99.9,29.95,ESE,121,4.0,15.0,1,0.00,,,0.00,WeatherCatV1.13B119,2013-05-16 08:03:00,
2013-05-16 01:08:00,47.3,-99.9,29.94,East,100,4.0,4.0,1,0.00,,,0.00,WeatherCatV1.13B119,2013-05-16 08:08:00,
2013-05-16 01:13:00,47.2,-99.9,29.94,ENE,57,12.0,13.0,1,0.00,,,0.00,WeatherCatV1.13B119,2013-05-16 08:13:00,
2013-05-16 01:18:00,47.2,-99.9,29.94,SSW,195,3.0,10.0,1,0.00,,,0.00,WeatherCatV1.13B119,2013-05-16 08:18:00,
2013-05-16 01:23:00,47.2,-99.9,29.94,ESE,118,5.0,17.0,1,0.00,,,0.00,WeatherCatV1.13B119,2013-05-16 08:23:00,
2013-05-16 01:28:00,47.2,-99.9,29.94,NW,306,6.0,10.0,1,0.00,,,0.00,WeatherCatV1.13B119,2013-05-16 08:28:00,
2013-05-16 01:33:00,47.3,-99.9,29.95,SSE,150,9.0,13.0,1,0.00,,,0.00,WeatherCatV1.13B119,2013-05-16 08:33:00,
2013-05-16 01:38:00,47.3,-99.9,29.94,NE,43,11.0,13.0,1,0.00,,,0.00,WeatherCatV1.13B119,2013-05-16 08:38:00,
2013-05-16 01:43:00,47.3,-99.9,29.93,East,90,6.0,16.0,1,0.00,,,0.00,WeatherCatV1.13B119,2013-05-16 08:43:00,
2013-05-16 01:48:00,47.3,-99.9,29.94,ENE,76,2.0,14.0,1,0.00,,,0.00,WeatherCatV1.13B119,2013-05-16 08:48:00,
2013-05-16 01:53:00,47.4,-99.9,29.93,ESE,109,4.0,7.0,1,0.00,,,0.00,WeatherCatV1.13B119,2013-05-16 08:53:00,
2013-05-16 01:58:00,47.3,-99.9,29.93,East,91,5.0,10.0,1,0.00,,,0.00,WeatherCatV1.13B119,2013-05-16 08:58:00,
2013-05-16 02:03:00,47.3,-99.9,29.93,South,175,2.0,10.0,1,0.00,,,0.00,WeatherCatV1.13B119,2013-05-16 09:03:00,
2013-05-16 02:08:00,47.3,-99.9,29.93,ENE,61,5.0,12.0,1,0.00,,,0.00,WeatherCatV1.13B119,2013-05-16 09:08:00,
2013-05-16 02:13:00,47.3,-99.9,29.93,SE,124,3.0,4.0,1,0.00,,,0.00,WeatherCatV1.13B119,2013-05-16 09:13:00,
2013-05-16 02:18:00,47.4,-99.9,29.92,SE,136,2.0,8.0,1,0.00,,,0.00,WeatherCatV1.13B119,2013-05-16 09:18:00,
2013-05-16 02:23:00,47.5,-99.9,29.92,ESE,119,2.0,6.0,1,0.00,,,0.00,WeatherCatV1.13B119,2013-05-16 09:23:00,
2013-05-16 02:28:00,47.5,-99.9,29.92,SE,134,2.0,10.0,1,0.00,,,0.00,WeatherCatV1.13B119,2013-05-16 09:28:00,
2013-05-16 02:33:00,47.5,-99.9,29.92,SE,143,4.0,10.0,1,0.00,,,0.00,WeatherCatV1.13B119,2013-05-16 09:33:00,
2013-05-16 02:38:00,47.5,-99.9,29.92,NNE,24,6.0,13.0,1,0.00,,,0.00,WeatherCatV1.13B119,2013-05-16 09:38:00,
2013-05-16 02:43:00,47.5,-99.9,29.92,ESE,122,1.0,4.0,1,0.00,,,0.00,WeatherCatV1.13B119,2013-05-16 09:43:00,
2013-05-16 02:48:00,47.5,-99.9,29.92,ENE,64,9.0,11.0,1,0.00,,,0.00,WeatherCatV1.13B119,2013-05-16 09:48:00,
2013-05-16 02:53:00,47.4,-99.9,29.92,SE,140,1.0,16.0,1,0.00,,,0.00,WeatherCatV1.13B119,2013-05-16 09:53:00,
2013-05-16 02:58:00,47.3,-99.9,29.92,South,169,2.0,10.0,1,0.00,,,0.00,WeatherCatV1.13B119,2013-05-16 09:58:00,
2013-05-16 03:03:00,47.2,-99.9,29.92,NE,46,5.0,5.0,1,0.00,,,0.00,WeatherCatV1.13B119,2013-05-16 10:03:00,
2013-05-16 03:08:00,47.2,-99.9,29.92,NNE,31,6.0,9.0,1,0.00,,,0.00,WeatherCatV1.13B119,2013-05-16 10:08:00,
2013-05-16 03:13:00,47.2,-99.9,29.92,ENE,69,2.0,11.0,1,0.00,,,0.00,WeatherCatV1.13B119,2013-05-16 10:13:00,
2013-05-16 03:18:00,47.2,-99.9,29.92,NNE,24,6.0,14.0,1,0.00,,,0.00,WeatherCatV1.13B119,2013-05-16 10:18:00,
2013-05-16 03:23:00,47.1,-99.9,29.92,NNE,16,12.0,12.0,1,0.00,,,0.00,WeatherCatV1.13B119,2013-05-16 10:23:00,
2013-05-16 03:28:00,47.2,-99.9,29.92,East,94,4.0,11.0,1,0.00,,,0.00,WeatherCatV1.13B119,2013-05-16 10:28:00,
2013-05-16 03:33:00,47.2,-99.9,29.92,SSE,150,2.0,12.0,1,0.00,,,0.00,WeatherCatV1.13B119,2013-05-16 10:33:00,
2013-05-16 03:38:00,47.2,-99.9,29.92,NNE,32,3.0,5.0,1,0.00,,,0.00,WeatherCatV1.13B119,2013-05-16 10:38:00,
2013-05-16 03:43:00,47.2,-99.9,29.92,SSE,167,2.0,4.0,1,0.00,,,0.00,WeatherCatV1.13B119,2013-05-16 10:43:00,
2013-05-16 03:48:00,47.2,-99.9,29.92,NE,36,2.0,7.0,1,0.00,,,0.00,WeatherCatV1.13B119,2013-05-16 10:48:00,
2013-05-16 03:53:00,47.3,-99.9,29.92,NE,49,4.0,7.0,1,0.00,,,0.00,WeatherCatV1.13B119,2013-05-16 10:53:00,
2013-05-16 03:58:00,47.3,-99.9,29.92,SE,139,2.0,9.0,1,0.00,,,0.00,WeatherCatV1.13B119,2013-05-16 10:58:00,
2013-05-16 04:03:00,47.2,-99.9,29.92,ENE,73,2.0,12.0,1,0.00,,,0.00,WeatherCatV1.13B119,2013-05-16 11:03:00,
2013-05-16 04:08:00,47.2,-99.9,29.92,NE,46,2.0,3.0,1,0.00,,,0.00,WeatherCatV1.13B119,2013-05-16 11:08:00,
2013-05-16 04:13:00,47.2,-99.9,29.92,WSW,253,10.0,10.0,1,0.00,,,0.00,WeatherCatV1.13B119,2013-05-16 11:13:00,
2013-05-16 04:18:00,47.2,-99.9,29.92,East,87,9.0,9.0,1,0.00,,,0.00,WeatherCatV1.13B119,2013-05-16 11:18:00,
2013-05-16 04:23:00,47.2,-99.9,29.92,South,183,3.0,5.0,1,0.00,,,0.00,WeatherCatV1.13B119,2013-05-16 11:23:00,
2013-05-16 04:28:00,47.2,-99.9,29.92,ESE,109,3.0,6.0,1,0.00,,,0.00,WeatherCatV1.13B119,2013-05-16 11:28:00,
2013-05-16 04:33:00,47.2,-99.9,29.92,SE,136,0.0,11.0,1,0.00,,,0.00,WeatherCatV1.13B119,2013-05-16 11:33:00,
2013-05-16 04:38:00,47.2,-99.9,29.92,SW,229,4.0,4.0,1,0.00,,,0.00,WeatherCatV1.13B119,2013-05-16 11:38:00,
2013-05-16 04:43:00,47.3,-99.9,29.92,SW,217,4.0,8.0,1,0.00,,,0.00,WeatherCatV1.13B119,2013-05-16 11:43:00,
2013-05-16 04:48:00,47.3,-99.9,29.92,ESE,108,0.0,10.0,1,0.00,,,0.00,WeatherCatV1.13B119,2013-05-16 11:48:00,
2013-05-16 04:53:00,47.3,-99.9,29.92,South,177,2.0,6.0,1,0.00,,,0.00,WeatherCatV1.13B119,2013-05-16 11:53:00,
2013-05-16 04:58:00,47.4,-99.9,29.92,ESE,119,0.0,6.0,1,0.00,,,0.00,WeatherCatV1.13B119,2013-05-16 11:58:00,
2013-05-16 05:03:00,47.4,-99.9,29.93,ESE,121,0.0,1.0,1,0.00,,,0.00,WeatherCatV1.13B119,2013-05-16 12:03:00,
2013-05-16 05:08:00,47.5,-99.9,29.92,South,186,1.0,2.0,1,0.00,,,0.00,WeatherCatV1.13B119,2013-05-16 12:08:00,
2013-05-16 05:13:00,47.5,-99.9,29.92,ESE,115,1.0,3.0,1,0.00,,,0.00,WeatherCatV1.13B119,2013-05-16 12:13:00,
2013-05-16 05:18:00,47.5,-99.9,29.92,West,275,3.0,6.0,1,0.00,,,0.00,WeatherCatV1.13B119,2013-05-16 12:18:00,
2013-05-16 05:23:00,47.5,-99.9,29.92,NNW,330,2.0,5.0,1,0.00,,,0.00,WeatherCatV1.13B119,2013-05-16 12:23:00,
2013-05-16 05:28:00,47.5,-99.9,29.92,ESE,117,0.0,3.0,1,0.00,,,0.00,WeatherCatV1.13B119,2013-05-16 12:28:00,
2013-05-16 05:33:00,47.5,-99.9,29.93,ESE,109,5.0,6.0,1,0.00,,,0.00,WeatherCatV1.13B119,2013-05-16 12:33:00,
2013-05-16 05:38:00,47.5,-99.9,29.92,NE,35,4.0,4.0,1,0.00,,,0.00,WeatherCatV1.13B119,2013-05-16 12:38:00,
2013-05-16 05:43:00,47.6,-99.9,29.93,ENE,59,4.0,10.0,1,0.00,,,0.00,WeatherCatV1.13B119,2013-05-16 12:43:00,
2013-05-16 05:48:00,47.6,-99.9,29.93,NNE,33,3.0,10.0,1,0.00,,,0.00,WeatherCatV1.13B119,2013-05-16 12:48:00,
2013-05-16 05:53:00,47.5,-99.9,29.93,West,265,3.0,6.0,1,0.00,,,0.00,WeatherCatV1.13B119,2013-05-16 12:53:00,
2013-05-16 05:58:00,47.6,-99.9,29.93,NE,42,5.0,6.0,1,0.00,,,0.00,WeatherCatV1.13B119,2013-05-16 12:58:00,
2013-05-16 06:03:00,47.6,-99.9,29.93,ESE,111,3.0,6.0,1,0.00,,,0.00,WeatherCatV1.13B119,2013-05-16 13:03:00,
2013-05-16 06:08:00,47.7,-99.9,29.93,ESE,123,7.0,7.0,1,0.00,,,0.00,WeatherCatV1.13B119,2013-05-16 13:08:00,
2013-05-16 06:13:00,47.7,-99.9,29.94,NE,42,1.0,6.0,1,0.00,,,0.00,WeatherCatV1.13B119,2013-05-16 13:13:00,
2013-05-16 06:18:00,47.6,-99.9,29.94,SSE,165,1.0,9.0,1,0.00,,,0.00,WeatherCatV1.13B119,2013-05-16 13:18:00,
2013-05-16 06:23:00,47.5,-99.9,29.94,East,80,9.0,9.0,1,0.00,,,0.00,WeatherCatV1.13B119,2013-05-16 13:23:00,
2013-05-16 06:28:00,47.5,-99.9,29.94,SE,136,1.0,6.0,1,0.00,,,0.00,WeatherCatV1.13B119,2013-05-16 13:28:00,
2013-05-16 06:33:00,47.4,-99.9,29.94,SW,229,3.0,5.0,1,0.00,,,0.00,WeatherCatV1.13B119,2013-05-16 13:33:00,
2013-05-16 06:38:00,47.3,-99.9,29.95,SE,130,3.0,8.0,1,0.00,,,0.00,WeatherCatV1.13B119,2013-05-16 13:38:00,
2013-05-16 06:43:00,47.3,-99.9,29.95,South,173,0.0,3.0,1,0.00,,,0.00,WeatherCatV1.13B119,2013-05-16 13:43:00,
2013-05-16 06:48:00,47.3,-99.9,29.95,SE,126,6.0,13.0,1,0.00,,,0.00,WeatherCatV1.13B119,2013-05-16 13:48:00,
2013-05-16 06:53:00,47.3,-99.9,29.95,South,175,4.0,5.0,1,0.00,,,0.00,WeatherCatV1.13B119,2013-05-16 13:53:00,
2013-05-16 06:58:00,47.5,-99.9,29.95,ESE,110,1.0,3.0,1,0.00,,,0.00,WeatherCatV1.13B119,2013-05-16 13:58:00,
2013-05-16 07:03:00,47.6,-99.9,29.95,SE,135,1.0,15.0,1,0.00,,,0.00,WeatherCatV1.13B119,2013-05-16 14:03:00,
2013-05-16 07:08:00,47.8,-99.9,29.96,SE,132,2.0,6.0,1,0.00,,,0.00,WeatherCatV1.13B119,2013-05-16 14:08:00,
2013-05-16 07:13:00,47.9,-99.9,29.95,SW,221,2.0,12.0,1,0.00,,,0.00,WeatherCatV1.13B119,2013-05-16 14:13:00,
2013-05-16 07:18:00,48.1,-99.9,29.96,SSE,161,0.0,4.0,1,0.00,,,0.00,WeatherCatV1.13B119,2013-05-16 14:18:00,
2013-05-16 07:23:00,48.1,-99.9,29.95,West,279,2.0,12.0,1,0.00,,,0.00,WeatherCatV1.13B119,2013-05-16 14:23:00,
2013-05-16 07:28:00,48.3,-99.9,29.96,WNW,292,6.0,10.0,1,0.00,,,0.00,WeatherCatV1.13B119,2013-05-16 14:28:00,
2013-05-16 07:33:00,48.3,-99.9,29.96,ESE,107,5.0,6.0,1,0.00,,,0.00,WeatherCatV1.13B119,2013-05-16 14:33:00,
2013-05-16 07:38:00,48.3,-99.9,29.96,SE,138,1.0,11.0,1,0.00,,,0.00,WeatherCatV1.13B119,2013-05-16 14:38:00,
2013-05-16 07:43:00,48.4,-99.9,29.96,South,185,1.0,5.0,1,0.00,,,0.00,WeatherCatV1.13B119,2013-05-16 14:43:00,
2013-05-16 07:48:00,48.5,-99.9,29.96,SSE,155,0.0,5.0,1,0.00,,,0.00,WeatherCatV1.13B119,2013-05-16 14:48:00,
2013-05-16 07:53:00,48.6,-99.9,29.95,NE,51,3.0,14.0,1,0.00,,,0.00,WeatherCatV1.13B119,2013-05-16 14:53:00,
2013-05-16 07:58:00,48.7,-99.9,29.95,SSE,155,1.0,5.0,1,0.00,,,0.00,WeatherCatV1.13B119,2013-05-16 14:58:00,
2013-05-16 08:03:00,48.9,-99.9,29.96,SE,140,0.0,7.0,1,0.00,,,0.00,WeatherCatV1.13B119,2013-05-16 15:03:00,
2013-05-16 08:08:00,49.1,-99.9,29.96,ESE,113,6.0,9.0,1,0.00,,,0.00,WeatherCatV1.13B119,2013-05-16 15:08:00,
2013-05-16 08:13:00,49.3,-99.9,29.96,WNW,302,1.0,9.0,1,0.00,,,0.00,WeatherCatV1.13B119,2013-05-16 15:13:00,
2013-05-16 08:18:00,49.4,-99.9,29.96,South,181,1.0,3.0,1,0.00,,,0.00,WeatherCatV1.13B119,2013-05-16 15:18:00,
2013-05-16 08:23:00,49.5,-99.9,29.96,ESE,117,1.0,12.0,1,0.00,,,0.00,WeatherCatV1.13B119,2013-05-16 15:23:00,
2013-05-16 08:28:00,49.5,-99.9,29.96,South,186,2.0,4.0,1,0.00,,,0.00,WeatherCatV1.13B119,2013-05-16 15:28:00,
2013-05-16 08:33:00,49.8,-99.9,29.96,SE,126,2.0,6.0,1,0.00,,,0.00,WeatherCatV1.13B119,2013-05-16 15:33:00,
2013-05-16 08:38:00,49.9,-99.9,29.96,SE,136,0.0,4.0,1,0.00,,,0.00,WeatherCatV1.13B119,2013-05-16 15:38:00,
2013-05-16 08:43:00,50.1,-99.9,29.96,NNE,13,5.0,5.0,1,0.00,,,0.00,WeatherCatV1.13B119,2013-05-16 15:43:00,
2013-05-16 08:48:00,50.1,-99.9,29.97,WSW,253,4.0,5.0,1,0.00,,,0.00,WeatherCatV1.13B119,2013-05-16 15:48:00,
2013-05-16 08:53:00,50.1,-99.9,29.96,SE,128,3.0,5.0,1,0.00,,,0.00,WeatherCatV1.13B119,2013-05-16 15:53:00,
2013-05-16 08:58:00,50.3,-99.9,29.97,ESE,107,3.0,5.0,1,0.00,,,0.00,WeatherCatV1.13B119,2013-05-16 15:58:00,
2013-05-16 09:03:00,50.3,-99.9,29.97,ENE,57,4.0,6.0,1,0.00,,,0.00,WeatherCatV1.13B119,2013-05-16 16:03:00,
2013-05-16 09:08:00,50.3,-99.9,29.97,SE,126,12.0,12.0,1,0.00,,,0.00,WeatherCatV1.13B119,2013-05-16 16:08:00,
2013-05-16 09:13:00,50.3,-99.9,29.97,ESE,117,0.0,3.0,1,0.00,,,0.00,WeatherCatV1.13B119,2013-05-16 16:13:00,
2013-05-16 09:18:00,50.4,-99.9,29.97,South,179,2.0,2.0,1,0.00,,,0.00,WeatherCatV1.13B119,2013-05-16 16:18:00,
2013-05-16 09:23:00,50.6,-99.9,29.97,ESE,118,0.0,3.0,1,0.00,,,0.00,WeatherCatV1.13B119,2013-05-16 16:23:00,
2013-05-16 09:28:00,50.8,-99.9,29.97,WSW,238,2.0,4.0,1,0.00,,,0.00,WeatherCatV1.13B119,2013-05-16 16:28:00,
2013-05-16 09:33:00,50.9,-99.9,29.97,ESE,111,1.0,3.0,1,0.00,,,0.00,WeatherCatV1.13B119,2013-05-16 16:33:00,
2013-05-16 09:38:00,51.0,-99.9,29.97,WSW,241,2.0,2.0,1,0.00,,,0.00,WeatherCatV1.13B119,2013-05-16 16:38:00,
2013-05-16 09:43:00,51.3,-99.9,29.97,SW,234,2.0,2.0,1,0.00,,,0.00,WeatherCatV1.13B119,2013-05-16 16:43:00,
2013-05-16 09:48:00,51.0,-99.9,29.96,South,179,0.0,1.0,1,0.00,,,0.00,WeatherCatV1.13B119,2013-05-16 16:48:00,
2013-05-16 09:53:00,51.1,-99.9,29.96,SSE,154,0.0,5.0,1,0.00,,,0.00,WeatherCatV1.13B119,2013-05-16 16:53:00,
2013-05-16 09:58:00,51.4,-99.9,29.96,SE,134,0.0,2.0,1,0.00,,,0.00,WeatherCatV1.13B119,2013-05-16 16:58:00,
2013-05-16 10:03:00,51.4,-99.9,29.96,SW,230,2.0,2.0,1,0.00,,,0.00,WeatherCatV1.13B119,2013-05-16 17:03:00,
2013-05-16 10:08:00,51.3,-99.9,29.96,SE,131,1.0,3.0,1,0.00,,,0.00,WeatherCatV1.13B119,2013-05-16 17:08:00,
2013-05-16 10:13:00,51.6,-99.9,29.96,ESE,119,1.0,4.0,1,0.00,,,0.00,WeatherCatV1.13B119,2013-05-16 17:13:00,
2013-05-16 10:18:00,51.7,-99.9,29.97,ESE,104,3.0,4.0,1,0.00,,,0.00,WeatherCatV1.13B119,2013-05-16 17:18:00,
2013-05-16 10:23:00,52.2,-99.9,29.96,WNW,288,4.0,4.0,1,0.00,,,0.00,WeatherCatV1.13B119,2013-05-16 17:23:00,
2013-05-16 10:28:00,52.5,-99.9,29.96,SW,230,3.0,6.0,1,0.00,,,0.00,WeatherCatV1.13B119,2013-05-16 17:28:00,
2013-05-16 10:33:00,53.2,-99.9,29.96,ESE,109,2.0,6.0,1,0.00,,,0.00,WeatherCatV1.13B119,2013-05-16 17:33:00,
2013-05-16 10:38:00,54.0,-99.9,29.96,South,178,0.0,3.0,1,0.00,,,0.00,WeatherCatV1.13B119,2013-05-16 17:38:00,
2013-05-16 10:43:00,54.4,-99.9,29.96,NNE,24,3.0,5.0,1,0.00,,,0.00,WeatherCatV1.13B119,2013-05-16 17:43:00,
2013-05-16 10:48:00,55.1,-99.9,29.96,South,188,0.0,3.0,1,0.00,,,0.00,WeatherCatV1.13B119,2013-05-16 17:48:00,
2013-05-16 10:53:00,56.1,-99.9,29.96,NE,55,6.0,6.0,1,0.00,,,0.00,WeatherCatV1.13B119,2013-05-16 17:53:00,
2013-05-16 10:58:00,56.2,-99.9,29.96,ESE,112,2.0,3.0,1,0.00,,,0.00,WeatherCatV1.13B119,2013-05-16 17:58:00,
2013-05-16 11:03:00,56.5,-99.9,29.96,NNE,28,5.0,6.0,1,0.00,,,0.00,WeatherCatV1.13B119,2013-05-16 18:03:00,
2013-05-16 11:08:00,56.3,-99.9,29.96,ESE,121,2.0,5.0,1,0.00,,,0.00,WeatherCatV1.13B119,2013-05-16 18:08:00,
2013-05-16 11:13:00,55.8,-99.9,29.96,ESE,110,1.0,5.0,1,0.00,,,0.00,WeatherCatV1.13B119,2013-05-16 18:13:00,
2013-05-16 11:18:00,56.0,-99.9,29.96,SSW,196,1.0,4.0,1,0.00,,,0.00,WeatherCatV1.13B119,2013-05-16 18:18:00,
2013-05-16 11:23:00,56.3,-99.9,29.96,East,94,1.0,4.0,1,0.00,,,0.00,WeatherCatV1.13B119,2013-05-16 18:23:00,
2013-05-16 11:28:00,56.6,-99.9,29.96,South,182,3.0,6.0,1,0.00,,,0.00,WeatherCatV1.13B119,2013-05-16 18:28:00,
2013-05-16 11:33:00,57.4,-99.9,29.96,SE,130,2.0,5.0,1,0.00,,,0.00,WeatherCatV1.13B119,2013-05-16 18:33:00,
2013-05-16 11:38:00,58.5,-8.5,29.96,East,88,1.0,3.0,6,0.00,,,0.00,WeatherCatV1.13B119,2013-05-16 18:38:00,
2013-05-16 11:43:00,59.9,16.3,29.96,NE,38,3.0,3.0,18,0.00,,,0.00,WeatherCatV1.13B119,2013-05-16 18:43:00,
2013-05-16 11:48:00,60.5,36.7,29.96,West,263,2.0,2.0,41,0.00,,,0.00,WeatherCatV1.13B119,2013-05-16 18:48:00,
2013-05-16 11:53:00,60.4,39.5,29.95,ENE,77,3.0,3.0,46,0.00,,,0.00,WeatherCatV1.13B119,2013-05-16 18:53:00,
2013-05-16 11:58:00,60.8,44.5,29.95,East,99,1.0,4.0,55,0.00,,,0.00,WeatherCatV1.13B119,2013-05-16 18:58:00,
2013-05-16 12:03:00,61.7,45.8,29.95,East,92,4.0,4.0,56,0.00,,,0.00,WeatherCatV1.13B119,2013-05-16 19:03:00,
2013-05-16 12:08:00,61.9,51.6,29.95,NE,42,4.0,7.0,69,0.00,,,0.00,WeatherCatV1.13B119,2013-05-16 19:08:00,
2013-05-16 12:13:00,61.5,51.2,29.95,ESE,102,0.0,3.0,69,0.00,,,0.00,WeatherCatV1.13B119,2013-05-16 19:13:00,
2013-05-16 12:18:00,62.0,50.5,29.95,NE,49,2.0,5.0,66,0.00,,,0.00,WeatherCatV1.13B119,2013-05-16 19:18:00,
2013-05-16 12:23:00,63.2,54.4,29.95,South,178,0.0,3.0,73,0.00,,,0.00,WeatherCatV1.13B119,2013-05-16 19:23:00,
2013-05-16 12:28:00,63.6,55.2,29.95,SE,138,0.0,4.0,74,0.00,,,0.00,WeatherCatV1.13B119,2013-05-16 19:28:00,
2013-05-16 12:33:00,63.7,55.3,29.95,SE,146,0.0,5.0,74,0.00,,,0.00,WeatherCatV1.13B119,2013-05-16 19:33:00,
2013-05-16 12:38:00,64.3,56.2,29.94,ENE,58,3.0,5.0,75,0.00,,,0.00,WeatherCatV1.13B119,2013-05-16 19:38:00,
2013-05-16 12:43:00,65.5,57.0,29.94,East,95,2.0,4.0,74,0.00,,,0.00,WeatherCatV1.13B119,2013-05-16 19:43:00,
2013-05-16 12:48:00,64.7,55.5,29.94,ENE,65,6.0,13.0,72,0.00,,,0.00,WeatherCatV1.13B119,2013-05-16 19:48:00,
2013-05-16 12:53:00,63.8,55.3,29.94,NE,46,10.0,11.0,74,0.00,,,0.00,WeatherCatV1.13B119,2013-05-16 19:53:00,
2013-05-16 12:58:00,63.2,54.4,29.94,NE,55,10.0,12.0,73,0.00,,,0.00,WeatherCatV1.13B119,2013-05-16 19:58:00,
2013-05-16 13:03:00,64.0,54.4,29.94,SE,136,1.0,15.0,71,0.00,,,0.00,WeatherCatV1.13B119,2013-05-16 20:03:00,
2013-05-16 13:08:00,64.0,55.2,29.94,SE,124,0.0,5.0,73,0.00,,,0.00,WeatherCatV1.13B119,2013-05-16 20:08:00,
2013-05-16 13:13:00,64.1,55.3,29.94,NNE,19,3.0,9.0,73,0.00,,,0.00,WeatherCatV1.13B119,2013-05-16 20:13:00,
2013-05-16 13:18:00,64.2,55.4,29.94,East,87,2.0,5.0,73,0.00,,,0.00,WeatherCatV1.13B119,2013-05-16 20:18:00,
2013-05-16 13:23:00,63.2,54.0,29.94,East,94,7.0,15.0,72,0.00,,,0.00,WeatherCatV1.13B119,2013-05-16 20:23:00,
2013-05-16 13:28:00,62.5,54.1,29.94,ESE,122,0.0,5.0,74,0.00,,,0.00,WeatherCatV1.13B119,2013-05-16 20:28:00,
2013-05-16 13:33:00,62.0,54.0,29.94,ESE,123,3.0,5.0,75,0.00,,,0.00,WeatherCatV1.13B119,2013-05-16 20:33:00,
2013-05-16 13:38:00,61.8,53.8,29.94,East,96,5.0,7.0,75,0.00,,,0.00,WeatherCatV1.13B119,2013-05-16 20:38:00,
2013-05-16 13:43:00,61.9,53.5,29.94,SW,215,2.0,11.0,74,0.00,,,0.00,WeatherCatV1.13B119,2013-05-16 20:43:00,
2013-05-16 13:48:00,62.6,54.2,29.94,South,191,1.0,5.0,74,0.00,,,0.00,WeatherCatV1.13B119,2013-05-16 20:48:00,
2013-05-16 13:53:00,62.1,54.1,29.94,SE,144,0.0,5.0,75,0.00,,,0.00,WeatherCatV1.13B119,2013-05-16 20:53:00,
2013-05-16 13:58:00,62.9,54.5,29.94,NNE,30,6.0,6.0,74,0.00,,,0.00,WeatherCatV1.13B119,2013-05-16 20:58:00,
2013-05-16 14:03:00,62.6,54.2,29.93,East,87,5.0,9.0,74,0.00,,,0.00,WeatherCatV1.13B119,2013-05-16 21:03:00,
2013-05-16 14:08:00,62.5,54.1,29.94,NE,54,12.0,12.0,74,0.00,,,0.00,WeatherCatV1.13B119,2013-05-16 21:08:00,
2013-05-16 14:13:00,63.3,54.5,29.93,NNE,24,6.0,9.0,73,0.00,,,0.00,WeatherCatV1.13B119,2013-05-16 21:13:00,
2013-05-16 14:18:00,62.9,53.7,29.93,ENE,65,3.0,7.0,72,0.00,,,0.00,WeatherCatV1.13B119,2013-05-16 21:18:00,
2013-05-16 14:23:00,62.8,54.0,29.93,East,101,2.0,6.0,73,0.00,,,0.00,WeatherCatV1.13B119,2013-05-16 21:23:00,
2013-05-16 14:28:00,64.0,54.0,29.93,NW,317,2.0,11.0,70,0.00,,,0.00,WeatherCatV1.13B119,2013-05-16 21:28:00,
2013-05-16 14:33:00,64.3,53.1,29.93,NNE,15,6.0,7.0,67,0.00,,,0.00,WeatherCatV1.13B119,2013-05-16 21:33:00,
2013-05-16 14:38:00,64.1,53.3,29.93,West,269,2.0,5.0,68,0.00,,,0.00,WeatherCatV1.13B119,2013-05-16 21:38:00,
2013-05-16 14:43:00,63.7,52.1,29.93,SSE,157,1.0,8.0,66,0.00,,,0.00,WeatherCatV1.13B119,2013-05-16 21:43:00,
2013-05-16 14:48:00,63.1,52.0,29.93,South,176,0.0,11.0,67,0.00,,,0.00,WeatherCatV1.13B119,2013-05-16 21:48:00,
2013-05-16 14:53:00,62.4,52.1,29.93,NE,51,6.0,7.0,69,0.00,,,0.00,WeatherCatV1.13B119,2013-05-16 21:53:00,
2013-05-16 14:58:00,61.5,50.8,29.93,South,173,0.0,12.0,68,0.00,,,0.00,WeatherCatV1.13B119,2013-05-16 21:58:00,
2013-05-16 15:03:00,60.9,51.0,29.93,SW,215,3.0,7.0,70,0.00,,,0.00,WeatherCatV1.13B119,2013-05-16 22:03:00,
2013-05-16 15:08:00,61.1,51.6,29.92,SSE,163,2.0,10.0,71,0.00,,,0.00,WeatherCatV1.13B119,2013-05-16 22:08:00,
2013-05-16 15:13:00,61.5,52.0,29.93,SW,234,2.0,5.0,71,0.00,,,0.00,WeatherCatV1.13B119,2013-05-16 22:13:00,
2013-05-16 15:23:00,62.2,52.3,29.93,SE,136,1.0,6.0,70,0.00,,,0.00,WeatherCatV1.13B119,2013-05-16 22:23:00,
2013-05-16 15:28:00,62.5,52.6,29.92,SE,125,1.0,6.0,70,0.00,,,0.00,WeatherCatV1.13B119,2013-05-16 22:28:00,
2013-05-16 15:33:00,62.9,51.4,29.92,SSW,203,3.0,6.0,66,0.00,,,0.00,WeatherCatV1.13B119,2013-05-16 22:33:00,
2013-05-16 15:38:00,62.1,51.8,29.92,WSW,248,2.0,3.0,69,0.00,,,0.00,WeatherCatV1.13B119,2013-05-16 22:38:00,
2013-05-16 15:43:00,62.9,52.6,29.92,SE,132,2.0,5.0,69,0.00,,,0.00,WeatherCatV1.13B119,2013-05-16 22:43:00,
2013-05-16 15:48:00,62.3,51.6,29.92,SW,230,2.0,7.0,68,0.00,,,0.00,WeatherCatV1.13B119,2013-05-16 22:48:00,
2013-05-16 15:53:00,62.2,51.9,29.91,SSE,154,2.0,7.0,69,0.00,,,0.00,WeatherCatV1.13B119,2013-05-16 22:53:00,
2013-05-16 15:58:00,61.6,51.7,29.91,WNW,302,3.0,6.0,70,0.00,,,0.00,WeatherCatV1.13B119,2013-05-16 22:58:00,
2013-05-16 16:03:00,61.6,51.3,29.92,WNW,300,2.0,7.0,69,0.00,,,0.00,WeatherCatV1.13B119,2013-05-16 23:03:00,
2013-05-16 16:08:00,61.6,51.3,29.92,SE,128,1.0,5.0,69,0.00,,,0.00,WeatherCatV1.13B119,2013-05-16 23:08:00,
2013-05-16 16:13:00,61.8,51.9,29.92,SE,137,1.0,5.0,70,0.00,,,0.00,WeatherCatV1.13B119,2013-05-16 23:13:00,
2013-05-16 16:18:00,61.4,51.1,29.92,NE,44,4.0,6.0,69,0.00,,,0.00,WeatherCatV1.13B119,2013-05-16 23:18:00,
2013-05-16 16:23:00,61.3,51.4,29.92,NNE,26,8.0,11.0,70,0.00,,,0.00,WeatherCatV1.13B119,2013-05-16 23:23:00,
2013-05-16 16:28:00,61.8,51.1,29.92,East,86,4.0,11.0,68,0.00,,,0.00,WeatherCatV1.13B119,2013-05-16 23:28:00,
2013-05-16 16:33:00,60.1,50.7,29.92,SE,132,1.0,6.0,71,0.00,,,0.00,WeatherCatV1.13B119,2013-05-16 23:33:00,
2013-05-16 16:38:00,59.9,51.2,29.92,West,272,3.0,6.0,73,0.00,,,0.00,WeatherCatV1.13B119,2013-05-16 23:38:00,
2013-05-16 16:43:00,59.7,51.0,29.92,South,191,1.0,5.0,73,0.00,,,0.00,WeatherCatV1.13B119,2013-05-16 23:43:00,
2013-05-16 16:48:00,59.5,50.8,29.92,NE,40,9.0,12.0,73,0.00,,,0.00,WeatherCatV1.13B119,2013-05-16 23:48:00,
2013-05-16 16:53:00,59.5,50.8,29.91,South,182,0.0,8.0,73,0.00,,,0.00,WeatherCatV1.13B119,2013-05-16 23:53:00,
2013-05-16 16:58:00,59.6,50.9,29.91,SW,225,6.0,6.0,73,0.00,,,0.00,WeatherCatV1.13B119,2013-05-16 23:58:00,
2013-05-16 17:03:00,59.7,51.0,29.91,WSW,253,2.0,6.0,73,0.00,,,0.00,WeatherCatV1.13B119,2013-05-17 00:03:00,
2013-05-16 17:08:00,59.9,51.2,29.91,ESE,113,3.0,5.0,73,0.00,,,0.00,WeatherCatV1.13B119,2013-05-17 00:08:00,
2013-05-16 17:13:00,60.0,50.9,29.91,SSE,156,2.0,7.0,72,0.00,,,0.00,WeatherCatV1.13B119,2013-05-17 00:13:00,
2013-05-16 17:18:00,60.3,51.2,29.91,NE,46,7.0,10.0,72,0.00,,,0.00,WeatherCatV1.13B119,2013-05-17 00:18:00,
2013-05-16 17:23:00,58.9,50.3,29.91,ENE,76,4.0,7.0,73,0.00,,,0.00,WeatherCatV1.13B119,2013-05-17 00:23:00,
2013-05-16 17:28:00,57.9,50.0,29.91,ENE,58,4.0,6.0,75,0.00,,,0.00,WeatherCatV1.13B119,2013-05-17 00:28:00,
2013-05-16 17:33:00,56.8,49.3,29.91,NE,55,6.0,9.0,76,0.00,,,0.00,WeatherCatV1.13B119,2013-05-17 00:33:00,
2013-05-16 17:38:00,56.1,48.3,29.91,ESE,115,1.0,4.0,75,0.00,,,0.00,WeatherCatV1.13B119,2013-05-17 00:38:00,
2013-05-16 17:43:00,55.7,47.9,29.91,South,177,1.0,10.0,75,0.00,,,0.00,WeatherCatV1.13B119,2013-05-17 00:43:00,
2013-05-16 17:48:00,55.3,47.2,29.92,ENE,71,4.0,5.0,74,0.00,,,0.00,WeatherCatV1.13B119,2013-05-17 00:48:00,
2013-05-16 17:53:00,55.1,46.2,29.92,SSE,153,1.0,7.0,72,0.00,,,0.00,WeatherCatV1.13B119,2013-05-17 00:53:00,
2013-05-16 17:58:00,55.0,45.8,29.91,East,81,11.0,11.0,71,0.00,,,0.00,WeatherCatV1.13B119,2013-05-17 00:58:00,
2013-05-16 18:03:00,54.7,45.1,29.91,SE,134,1.0,17.0,70,0.00,,,0.00,WeatherCatV1.13B119,2013-05-17 01:03:00,
2013-05-16 18:08:00,54.7,44.3,29.91,East,96,3.0,4.0,68,0.00,,,0.00,WeatherCatV1.13B119,2013-05-17 01:08:00,
2013-05-16 18:13:00,54.7,44.7,29.91,SSW,195,1.0,11.0,69,0.00,,,0.00,WeatherCatV1.13B119,2013-05-17 01:13:00,
2013-05-16 18:18:00,54.5,44.2,29.91,NE,34,9.0,9.0,68,0.00,,,0.00,WeatherCatV1.13B119,2013-05-17 01:18:00,
2013-05-16 18:23:00,54.4,43.7,29.91,SE,131,1.0,9.0,67,0.00,,,0.00,WeatherCatV1.13B119,2013-05-17 01:23:00,
2013-05-16 18:28:00,54.4,42.9,29.91,SE,125,3.0,5.0,65,0.00,,,0.00,WeatherCatV1.13B119,2013-05-17 01:28:00,
2013-05-16 18:33:00,54.5,43.0,29.91,SE,124,0.0,2.0,65,0.00,,,0.00,WeatherCatV1.13B119,2013-05-17 01:33:00,
2013-05-16 18:38:00,54.6,43.1,29.91,SSW,194,1.0,4.0,65,0.00,,,0.00,WeatherCatV1.13B119,2013-05-17 01:38:00,
2013-05-16 18:43:00,54.4,42.9,29.91,WSW,254,3.0,3.0,65,0.00,,,0.00,WeatherCatV1.13B119,2013-05-17 01:43:00,
2013-05-16 18:48:00,54.1,41.8,29.90,SE,133,0.0,5.0,63,0.00,,,0.00,WeatherCatV1.13B119,2013-05-17 01:48:00,
2013-05-16 18:53:00,54.1,40.5,29.90,SE,132,0.0,1.0,60,0.00,,,0.00,WeatherCatV1.13B119,2013-05-17 01:53:00,
2013-05-16 18:58:00,53.9,40.8,29.90,ENE,77,3.0,6.0,61,0.00,,,0.00,WeatherCatV1.13B119,2013-05-17 01:58:00,
2013-05-16 19:03:00,53.7,39.3,29.91,SSW,194,6.0,6.0,58,0.00,,,0.00,WeatherCatV1.13B119,2013-05-17 02:03:00,
2013-05-16 19:08:00,53.4,38.6,29.90,East,81,4.0,9.0,57,0.00,,,0.00,WeatherCatV1.13B119,2013-05-17 02:08:00,
2013-05-16 19:13:00,53.2,36.5,29.90,SSE,167,0.0,8.0,53,0.00,,,0.00,WeatherCatV1.13B119,2013-05-17 02:13:00,
2013-05-16 19:18:00,53.0,34.9,29.90,ESE,119,1.0,4.0,50,0.00,,,0.00,WeatherCatV1.13B119,2013-05-17 02:18:00,
2013-05-16 19:23:00,52.9,32.1,29.90,ESE,119,1.0,4.0,45,0.00,,,0.00,WeatherCatV1.13B119,2013-05-17 02:23:00,
2013-05-16 19:28:00,52.9,31.0,29.90,SE,132,0.0,0.0,43,0.00,,,0.00,WeatherCatV1.13B119,2013-05-17 02:28:00,
2013-05-16 19:33:00,52.8,33.1,29.90,NNE,15,4.0,4.0,47,0.00,,,0.00,WeatherCatV1.13B119,2013-05-17 02:33:00,
2013-05-16 19:38:00,52.6,33.0,29.90,SSE,167,1.0,3.0,47,0.00,,,0.00,WeatherCatV1.13B119,2013-05-17 02:38:00,
2013-05-16 19:43:00,52.1,33.5,29.91,South,176,1.0,4.0,49,0.00,,,0.00,WeatherCatV1.13B119,2013-05-17 02:43:00,
2013-05-16 19:48:00,51.8,32.7,29.91,East,80,2.0,3.0,48,0.00,,,0.00,WeatherCatV1.13B119,2013-05-17 02:48:00,
2013-05-16 19:53:00,51.6,31.5,29.91,SE,141,1.0,2.0,46,0.00,,,0.00,WeatherCatV1.13B119,2013-05-17 02:53:00,
2013-05-16 19:58:00,51.4,29.7,29.91,SSE,153,0.0,3.0,43,0.00,,,0.00,WeatherCatV1.13B119,2013-05-17 02:58:00,
2013-05-16 20:03:00,51.2,27.1,29.91,SSW,202,0.0,3.0,39,0.00,,,0.00,WeatherCatV1.13B119,2013-05-17 03:03:00,
2013-05-16 20:08:00,51.0,24.3,29.91,SSW,195,0.0,6.0,35,0.00,,,0.00,WeatherCatV1.13B119,2013-05-17 03:08:00,
2013-05-16 20:13:00,50.8,20.5,29.91,South,169,0.0,3.0,30,0.00,,,0.00,WeatherCatV1.13B119,2013-05-17 03:13:00,
2013-05-16 20:18:00,50.7,15.2,29.91,SSE,150,1.0,7.0,24,0.00,,,0.00,WeatherCatV1.13B119,2013-05-17 03:18:00,
2013-05-16 20:23:00,50.6,8.7,29.91,South,176,1.0,5.0,18,0.00,,,0.00,WeatherCatV1.13B119,2013-05-17 03:23:00,
2013-05-16 20:28:00,50.6,1.6,29.91,ESE,121,2.0,2.0,13,0.00,,,0.00,WeatherCatV1.13B119,2013-05-17 03:28:00,
2013-05-16 20:33:00,50.6,-6.1,29.92,ESE,103,1.0,2.0,9,0.00,,,0.00,WeatherCatV1.13B119,2013-05-17 03:33:00,
2013-05-16 20:38:00,50.6,-14.3,29.92,SE,138,0.0,1.0,6,0.00,,,0.00,WeatherCatV1.13B119,2013-05-17 03:38:00,
2013-05-16 20:43:00,50.6,-22.1,29.92,SSE,155,1.0,1.0,4,0.00,,,0.00,WeatherCatV1.13B119,2013-05-17 03:43:00,
2013-05-16 20:48:00,50.5,-17.9,29.92,SE,130,0.0,0.0,5,0.00,,,0.00,WeatherCatV1.13B119,2013-05-17 03:48:00,
2013-05-16 20:53:00,50.4,-27.6,29.92,SE,126,0.0,0.0,3,0.00,,,0.00,WeatherCatV1.13B119,2013-05-17 03:53:00,
2013-05-16 20:58:00,50.4,-46.7,29.92,SE,134,1.0,1.0,1,0.00,,,0.00,WeatherCatV1.13B119,2013-05-17 03:58:00,
2013-05-16 21:03:00,50.3,-99.9,29.92,South,171,1.0,3.0,1,0.00,,,0.00,WeatherCatV1.13B119,2013-05-17 04:03:00,
2013-05-16 21:08:00,50.3,-99.9,29.93,ESE,118,0.0,3.0,1,0.00,,,0.00,WeatherCatV1.13B119,2013-05-17 04:08:00,
2013-05-16 21:13:00,50.3,-99.9,29.93,East,85,2.0,3.0,1,0.00,,,0.00,WeatherCatV1.13B119,2013-05-17 04:13:00,
2013-05-16 21:18:00,50.2,-99.9,29.93,ESE,115,1.0,6.0,1,0.00,,,0.00,WeatherCatV1.13B119,2013-05-17 04:18:00,
2013-05-16 21:23:00,50.1,-99.9,29.93,SE,129,0.0,4.0,1,0.00,,,0.00,WeatherCatV1.13B119,2013-05-17 04:23:00,
2013-05-16 21:28:00,50.0,-99.9,29.93,SSE,158,0.0,4.0,1,0.00,,,0.00,WeatherCatV1.13B119,2013-05-17 04:28:00,
2013-05-16 21:33:00,50.0,-99.9,29.93,SSE,156,0.0,2.0,1,0.00,,,0.00,WeatherCatV1.13B119,2013-05-17 04:33:00,
2013-05-16 21:38:00,49.9,-99.9,29.93,ENE,74,7.0,7.0,1,0.00,,,0.00,WeatherCatV1.13B119,2013-05-17 04:38:00,
2013-05-16 21:43:00,49.9,-99.9,29.93,ESE,105,2.0,3.0,1,0.00,,,0.00,WeatherCatV1.13B119,2013-05-17 04:43:00,
2013-05-16 21:48:00,49.8,-99.9,29.93,SSE,157,2.0,9.0,1,0.00,,,0.00,WeatherCatV1.13B119,2013-05-17 04:48:00,
2013-05-16 21:53:00,49.7,-99.9,29.93,ESE,103,3.0,6.0,1,0.00,,,0.00,WeatherCatV1.13B119,2013-05-17 04:53:00,
2013-05-16 21:58:00,49.7,-99.9,29.93,NE,45,3.0,6.0,1,0.00,,,0.00,WeatherCatV1.13B119,2013-05-17 04:58:00,
2013-05-16 22:03:00,49.5,-99.9,29.93,ENE,71,4.0,7.0,1,0.00,,,0.00,WeatherCatV1.13B119,2013-05-17 05:03:00,
2013-05-16 22:08:00,49.4,-99.9,29.93,WNW,284,3.0,5.0,1,0.00,,,0.00,WeatherCatV1.13B119,2013-05-17 05:08:00,
2013-05-16 22:13:00,49.3,-99.9,29.93,South,181,1.0,13.0,1,0.00,,,0.00,WeatherCatV1.13B119,2013-05-17 05:13:00,
2013-05-16 22:18:00,49.2,-99.9,29.93,ENE,77,5.0,5.0,1,0.00,,,0.00,WeatherCatV1.13B119,2013-05-17 05:18:00,
2013-05-16 22:23:00,49.1,-99.9,29.93,NE,54,4.0,10.0,1,0.00,,,0.00,WeatherCatV1.13B119,2013-05-17 05:23:00,
2013-05-16 22:28:00,49.1,-99.9,29.93,ESE,112,2.0,3.0,1,0.00,,,0.00,WeatherCatV1.13B119,2013-05-17 05:28:00,
2013-05-16 22:33:00,49.0,-99.9,29.93,SE,131,5.0,7.0,1,0.00,,,0.00,WeatherCatV1.13B119,2013-05-17 05:33:00,
2013-05-16 22:38:00,48.9,-99.9,29.93,NE,54,8.0,8.0,1,0.00,,,0.00,WeatherCatV1.13B119,2013-05-17 05:38:00,
2013-05-16 22:43:00,48.9,-99.9,29.93,ESE,104,2.0,13.0,1,0.00,,,0.00,WeatherCatV1.13B119,2013-05-17 05:43:00,
2013-05-16 22:48:00,48.8,-99.9,29.92,South,188,3.0,9.0,1,0.00,,,0.00,WeatherCatV1.13B119,2013-05-17 05:48:00,
2013-05-16 22:53:00,48.7,-99.9,29.92,ESE,109,1.0,5.0,1,0.00,,,0.00,WeatherCatV1.13B119,2013-05-17 05:53:00,
2013-05-16 22:58:00,48.6,-99.9,29.92,ENE,69,5.0,13.0,1,0.00,,,0.00,WeatherCatV1.13B119,2013-05-17 05:58:00,
2013-05-16 23:03:00,48.5,-99.9,29.92,NE,44,4.0,4.0,1,0.00,,,0.00,WeatherCatV1.13B119,2013-05-17 06:03:00,
2013-05-16 23:08:00,48.4,-99.9,29.92,SSE,157,0.0,3.0,1,0.00,,,0.00,WeatherCatV1.13B119,2013-05-17 06:08:00,
2013-05-16 23:13:00,48.3,-99.9,29.92,SSE,165,0.0,3.0,1,0.00,,,0.00,WeatherCatV1.13B119,2013-05-17 06:13:00,
2013-05-16 23:18:00,48.3,-99.9,29.92,South,169,0.0,5.0,1,0.00,,,0.00,WeatherCatV1.13B119,2013-05-17 06:18:00,
2013-05-16 23:23:00,48.2,-99.9,29.92,SW,229,2.0,9.0,1,0.00,,,0.00,WeatherCatV1.13B119,2013-05-17 06:23:00,
2013-05-16 23:28:00,48.1,-99.9,29.92,South,171,2.0,6.0,1,0.00,,,0.00,WeatherCatV1.13B119,2013-05-17 06:28:00,
2013-05-16 23:33:00,48.0,-99.9,29.92,SE,130,1.0,7.0,1,0.00,,,0.00,WeatherCatV1.13B119,2013-05-17 06:33:00,
2013-05-16 23:38:00,48.0,-99.9,29.92,ESE,121,2.0,15.0,1,0.00,,,0.00,WeatherCatV1.13B119,2013-05-17 06:38:00,
2013-05-16 23:43:00,47.9,-99.9,29.92,WSW,240,3.0,5.0,1,0.00,,,0.00,WeatherCatV1.13B119,2013-05-17 06:43:00,
2013-05-16 23:48:00,47.8,-99.9,29.92,NE,39,13.0,13.0,1,0.00,,,0.00,WeatherCatV1.13B119,2013-05-17 06:48:00,
2013-05-16 23:53:00,47.7,-99.9,29.92,South,186,0.0,3.0,1,0.00,,,0.00,WeatherCatV1.13B119,2013-05-17 06:53:00,
2013-05-16 23:58:00,47.6,-99.9,29.91,ENE,61,3.0,10.0,1,0.00,,,0.00,WeatherCatV1.13B119,2013-05-17 06:58:00,